This demonstration page uses our WeatherBlox Daily Observations layout. Learn more.

Left ArrowRight Arrow

40.92945, -100.16068

Hourly Observations for May 2, 2021

Temp ( °F °C ) Dew Point ( °F °C ) Humidity (%) Winds ( mph kmh ) Pressure ( in mb ) Visibility ( mi km ) Precip ( " mm )
12:15 am 00:15 Clear 70 20.9 45 7 41 41 S 16 26 29.48 998 10 16 0.00 0.00
12:35 am 00:35 Clear 69 20.7 45 7 41 41 S 16 26 29.48 998 10 16 0.00 0.00
12:55 am 00:55 Clear 69 20.5 45 7 42 42 S 16 26 29.48 998 10 16 0.00 0.00
1:15 am 01:15 Clear 68 20 45 7 43 43 SSW 15 24 29.47 998 10 16 0.00 0.00
1:35 am 01:35 Clear 67 19.3 45 7.1 45 45 S 16 26 29.48 998 10 16 0.00 0.00
1:55 am 01:55 Clear 66 19 45 7.3 47 47 S 15 24 29.48 998 10 16 0.00 0.00
2:15 am 02:15 Clear 65 18.5 46 7.5 49 49 S 8 13 29.50 999 10 16 0.00 0.00
2:35 am 02:35 Clear 64 17.5 46 7.5 52 52 NNE 5 7 29.50 999 10 16 0.00 0.00
2:55 am 02:55 Clear 66 18.8 46 7.8 49 49 S 14 22 29.47 998 10 16 0.00 0.00
3:15 am 03:15 Clear 65 18.4 46 7.9 51 51 SSW 14 22 29.48 998 10 16 0.00 0.00
3:35 am 03:35 Clear 63 17.2 47 8.1 55 55 SSE 13 20 29.48 998 10 16 0.00 0.00
3:55 am 03:55 Clear 63 17 47 8.2 56 56 SE 9 15 29.47 998 10 16 0.00 0.00
4:15 am 04:15 Clear 62 16.7 47 8.5 59 59 SSE 5 7 29.46 998 10 16 0.00 0.00
4:35 am 04:35 Clear 63 17.1 47 8.6 58 58 S 9 15 29.46 998 10 16 0.00 0.00
4:55 am 04:55 Clear 61 16.2 48 8.8 62 62 SSE 6 9 29.46 997 10 16 0.00 0.00
5:15 am 05:15 Clear 62 16.5 48 8.7 60 60 S 6 9 29.45 997 10 16 0.00 0.00
5:35 am 05:35 Clear 61 16 48 9 63 63 S 3 6 29.46 998 10 16 0.00 0.00
5:55 am 05:55 Clear 61 15.9 48 9.1 64 64 S 3 6 29.46 998 10 16 0.00 0.00
6:15 am 06:15 Clear 61 16.2 49 9.5 65 65 WSW 3 6 29.47 998 10 16 0.00 0.00
6:35 am 06:35 Clear 61 15.9 49 9.5 66 66 WSW 3 6 29.47 998 10 16 0.00 0.00
6:55 am 06:55 Sunny 60 15.5 49 9.6 68 68 SSW 3 6 29.47 998 10 16 0.00 0.00
7:15 am 07:15 Sunny 58 14.7 49 9.4 71 71 NNE 5 7 29.48 998 10 16 0.00 0.00
7:35 am 07:35 Sunny 58 14.7 49 9.6 72 72 Calm 29.49 999 10 16 0.00 0.00
7:55 am 07:55 Sunny 62 16.4 53 11.5 73 73 SSW 7 11 29.48 998 10 16 0.00 0.00
8:15 am 08:15 Sunny 62 16.7 53 11.5 72 72 Calm 29.49 999 10 16 0.00 0.00
8:35 am 08:35 Sunny 63 17 53 11.5 70 70 Calm 29.48 998 10 16 0.00 0.00
8:55 am 08:55 Sunny 64 17.9 54 12.4 70 70 SW 6 9 29.47 998 10 16 0.00 0.00
9:15 am 09:15 Sunny 64 18 55 12.5 70 70 WSW 7 11 29.48 998 10 16 0.00 0.00
9:35 am 09:35 Sunny 64 17.9 54 12.2 69 69 W 6 9 29.47 998 10 16 0.00 0.00
9:55 am 09:55 Sunny 65 18.4 55 12.5 69 69 SW 5 7 29.46 998 10 16 0.00 0.00
10:15 am 10:15 Sunny 66 19 54 12.4 66 66 WSW 5 7 29.46 998 10 16 0.00 0.00
10:35 am 10:35 Sunny 67 19.5 54 12.2 63 63 WNW 8 13 29.46 998 10 16 0.00 0.00
10:55 am 10:55 Sunny 68 19.9 54 12 61 61 NNW 6 9 29.45 997 10 16 0.00 0.00
11:15 am 11:15 Sunny 70 21 53 11.6 55 55 NNE 6 9 29.45 997 10 16 0.00 0.00
11:35 am 11:35 Sunny 72 22 50 10 47 47 N 9 15 29.44 997 10 16 0.00 0.00
11:55 am 11:55 Sunny 73 22.9 46 7.8 38 38 NNE 9 15 29.42 996 10 16 0.00 0.00
12:15 pm 12:15 Sunny 73 22.8 45 7.2 37 37 NE 9 15 29.42 996 10 16 0.00 0.00
12:35 pm 12:35 Sunny 75 23.8 44 6.9 34 34 E 8 13 29.41 996 10 16 0.00 0.00
12:55 pm 12:55 Sunny 76 24.7 44 6.7 32 32 ENE 9 15 29.40 996 10 16 0.00 0.00
1:15 pm 13:15 Sunny 77 25.1 45 7.1 32 32 NE 7 11 29.39 995 10 16 0.00 0.00
1:35 pm 13:35 Sunny 79 26.2 47 8.1 32 32 NNE 10 17 29.38 995 10 16 0.00 0.00
1:55 pm 13:55 Sunny 80 26.7 46 7.9 30 30 N 13 20 29.38 995 10 16 0.00 0.00
2:15 pm 14:15 Sunny 78 25.5 45 7.4 32 32 NNE 13 20 29.38 995 10 16 0.00 0.00
2:35 pm 14:35 Sunny 77 25.2 46 7.7 33 33 NE 15 24 29.38 995 10 16 0.00 0.00
2:55 pm 14:55 Sunny 78 25.7 47 8.4 33 33 ENE 17 28 29.36 994 10 16 0.00 0.00
3:15 pm 15:15 Sunny 79 26.1 48 8.7 33 33 ENE 15 24 29.35 994 10 16 0.00 0.00
3:35 pm 15:35 Sunny 80 26.4 47 8.4 32 32 NE 16 26 29.34 994 10 16 0.00 0.00
3:55 pm 15:55 Sunny 80 26.6 48 9 33 33 E 17 28 29.34 994 10 16 0.00 0.00
4:15 pm 16:15 Sunny 80 26.9 48 9 32 32 E 14 22 29.33 993 10 16 0.00 0.00
4:35 pm 16:35 Sunny 79 26.3 48 8.8 33 33 E 14 22 29.33 993 10 16 0.00 0.00
4:55 pm 16:55 Sunny 79 26.3 48 9 34 34 E 18 30 29.33 993 10 16 0.00 0.00
5:15 pm 17:15 Sunny 80 26.9 49 9.3 33 33 E 15 24 29.33 993 10 16 0.00 0.00
5:35 pm 17:35 Sunny 80 26.9 49 9.5 34 34 E 13 20 29.34 993 10 16 0.00 0.00
5:55 pm 17:55 Partly Cloudy 79 26 49 9.5 35 35 ENE 12 19 29.35 994 10 16 0.00 0.00
6:15 pm 18:15 Partly Cloudy 79 25.9 47 8.3 33 33 ENE 10 17 29.35 994 10 16 0.00 0.00
6:35 pm 18:35 Partly Cloudy 79 26.1 47 8.6 33 33 NE 13 20 29.34 994 10 16 0.00 0.00
6:55 pm 18:55 Cloudy 76 24.5 44 6.9 32 32 N 20 31 29.36 994 10 16 0.00 0.00
7:15 pm 19:15 Partly Cloudy 74 23.3 46 7.7 37 37 N 18 30 29.36 994 10 16 0.00 0.00
7:35 pm 19:35 Partly Cloudy with Thunderstorms 73 22.8 47 8.3 40 40 N 21 33 29.37 995 10 16 0.00 0.00
7:55 pm 19:55 Mostly Cloudy 72 22.1 48 9 43 43 N 22 35 29.39 995 10 16 0.00 0.00
8:15 pm 20:15 Mostly Cloudy with Haze 67 19.4 49 9.7 54 54 NNW 30 48 29.45 997 3 4 0.00 0.00
8:35 pm 20:35 Cloudy with Light Rain 65 18.5 49 9.3 55 55 NNW 30 48 29.48 998 7 11 0.00 0.00
8:55 pm 20:55 Cloudy 61 16.3 52 11.3 72 72 NW 30 48 29.53 1000 10 16 0.00 0.00
9:15 pm 21:15 Cloudy with Nearby Thunderstorms 59 15.1 56 13.3 89 89 WNW 25 41 29.58 1002 10 16 0.01 0.25
9:35 pm 21:35 Cloudy with Nearby Thunderstorms 58 14.4 55 13 91 91 WNW 25 41 29.61 1003 10 16 0.05 1.27
9:55 pm 21:55 Cloudy with Thunderstorms 58 14.2 55 12.8 91 91 NW 18 30 29.62 1003 7 11 0.10 2.54
10:15 pm 22:15 Cloudy with Thunderstorms 58 14.5 55 12.9 90 90 N 16 26 29.60 1002 10 16 0.04 1.02
10:35 pm 22:35 Cloudy with Rain 58 14.5 55 13 91 91 N 18 30 29.58 1002 7 11 0.10 2.54
10:55 pm 22:55 Cloudy with Nearby Thunderstorms 58 14.5 55 13 91 91 NE 25 41 29.53 1000 7 11 0.17 4.32
11:15 pm 23:15 Cloudy 58 14.5 55 12.7 89 89 NNE 21 33 29.56 1001 10 16 0.00 0.00
11:35 pm 23:35 Cloudy 58 14.3 55 12.8 91 91 NNE 16 26 29.58 1002 10 16 0.00 0.00
11:55 pm 23:55 Mostly Cloudy 57 13.9 54 12 88 88 NNE 18 30 29.60 1002 10 16 0.00 0.00

Powered by AerisWeather